Regional Weather Roundup
Issued by NWS

Home | Current Version | Previous Version | Graphics & Text | Print | Product List | Glossary On
Versions: 1 2 3 4 5 6 7 8 9 10 11 12 13 14 15 16 17 18 19 20 21 22 23 24 25 26 27 28 29 30 31 32 33 34 35 36 37 38 39 40 41 42 43 44 45 46 47 48 49 50
000
ASUS43 KLOT 260506
RWRIL

ILLINOIS REGIONAL WEATHER ROUNDUP
NATIONAL WEATHER SERVICE CHICAGO/ROMEOVILLE IL
1100 PM CST TUE NOV 25 2014

NOTE: "FAIR" INDICATES FEW OR NO CLOUDS BELOW 12,000 FEET WITH NO
SIGNIFICANT WEATHER AND/OR OBSTRUCTIONS TO VISIBILITY.

* THESE STATIONS ARE NOT UNDER NWS QUALITY CONTROL. THEY ALSO MAY NOT
  REPORT WEATHER SUCH AS PRECIPITATION OR FOG.

ILZ001-002-007-009-015-016-024-260600-
NORTHWEST ILLINOIS

CITY           SKY/WX    TMP DP  RH WIND       PRES   REMARKS
MOLINE         FAIR      11   7  84 E8        30.15F WCI  -1
STERLING*      CLEAR     10   7  85 CALM      30.17R
SAVANNA*       CLEAR     13  11  90 CALM      30.17S
$$

ILZ003-004-008-010-011-017-018-260600-
NORTH CENTRAL ILLINOIS

CITY           SKY/WX    TMP DP  RH WIND       PRES   REMARKS
ROCKFORD       CLEAR     11   8  88 CALM      30.19R
FREEPORT*      CLEAR     10   7  89 S8        30.17R WCI  -2
ROCHELLE*      CLEAR     11   9  91 SE6       30.18R WCI   2
DE KALB*       CLEAR     13  11  91 SE7       30.16F FOG     WCI   3
PERU*          CLEAR     20  18  92 SE6       30.18F WCI  12
$$

ILZ005-006-012>014-019>023-260600-
NORTHEAST ILLINOIS

CITY           SKY/WX    TMP DP  RH WIND       PRES   REMARKS
CHICAGO-OHARE  PTCLDY    19  16  88 S6        30.19S WCI  11
CHICAGO-MIDWAY CLOUDY    24  18  77 S7        30.20F WCI  16
AURORA         CLEAR     14  10  84 SE6       30.18F FOG     WCI   5
LANSING*       CLOUDY    24  19  84 S8        30.21S WCI  14
JOLIET*        CLOUDY    22  18  86 SE6       30.21S WCI  14
WAUKEGAN       CLEAR     14  10  84 CALM      30.18S
DUPAGE AIRPORT CLEAR     15  12  88 S6        30.17F WCI   6
KANKAKEE*      CLOUDY   N/A N/A N/A S3        30.21F
WHEELING       MOCLDY    19  15  84 S6        30.21S WCI  11
MORRIS*        CLEAR     19  18  93 SE6       30.19F WCI  11
NORTHERLY ISL    N/A     23  17  78 S10         N/A  WCI  13
$$

LMZ740>746-260600-
SOUTHERN LAKE MICHIGAN

STATION/POSITION SKY/WX   TEMP    WIND        PRES    VSBY  WAVE
                          AIR SEA DIR/SP/G                  HT/PER
                          (F)     (DEG/KT/KT) (MB)    (MI)  (FT/S)
SOUTHERN BUOY              28 42  210/ 12/ 16 1023.0R         2/ 6
WAUKEGAN HARBOR            20     220/  7/  9   N/A
HARRISON CRIB              23     180/ 13/ 16   N/A
BURNHAM HARBOR             23     220/  6/ 11   N/A
CALUMET HARBOR             23     210/  7/  9 1021.6F
MICHIGAN CITY              24     190/  9/ 11   N/A
$$

ILZ025>027-034>036-040-047-049-050-058-095>099-260600-
WEST-CENTRAL ILLINOIS

CITY           SKY/WX    TMP DP  RH WIND       PRES   REMARKS
QUINCY         CLEAR     24  19  81 SE7       30.13F WCI  16
GALESBURG*     CLEAR     19  18  96 E5        30.15F WCI  12
MACOMB*        CLEAR     22  21  96 SE5       30.18S WCI  16
JACKSONVILLE*  CLEAR     27  23  84 SE5       30.16S WCI  22
PITTSFIELD*    CLEAR     27  23  84 CALM      30.16S
$$

ILZ028>032-037-038-041>044-048-051>054-059>061-260600-
CENTRAL ILLINOIS

CITY           SKY/WX    TMP DP  RH WIND       PRES   REMARKS
PONTIAC        CLEAR     21  19  92 SE6       30.19F WCI  14
BLOOMINGTON    CLEAR     22  19  88 S7        30.17F WCI  14
DECATUR        CLEAR     24  21  88 SE3       30.18F
PEORIA         CLEAR     24  18  77 SE3       30.18S
LACON*         CLEAR     18  15  88 CALM      30.18S
LINCOLN*       CLEAR     25  22  91 SE3       30.19F
SPRINGFIELD    CLEAR     27  24  89 SE8       30.17F WCI  19
TAYLORVILLE    CLEAR     27  23  86 SE6       30.17F WCI  20
$$

ILZ033-039-045-046-055>057-062-063-260600-
EAST-CENTRAL ILLINOIS

CITY           SKY/WX    TMP DP  RH WIND       PRES   REMARKS
CHAMPAIGN      CLEAR     21  19  92 E7        30.18F WCI  12
DANVILLE*      CLOUDY    24  20  83 SE3       30.18F
MATTOON        CLEAR     26  22  84 CALM      30.18F
PARIS*         CLOUDY    28  24  84 CALM      30.21F
$$

ILZ079-100>102-260600-
SOUTHWEST ILLINOIS

CITY           SKY/WX    TMP DP  RH WIND       PRES   REMARKS
ALTON          CLEAR     26  23  88 SE3       30.17F
BELLEVILLE     CLEAR     25  24  96 CALM      30.18F
CAHOKIA*       CLEAR     30  25  81 S6        30.18F WCI  24
SPARTA*        CLEAR     27  24  89 CALM      30.19F
$$

ILZ064>066-069>071-074>076-080>082-084>086-088>090-092>094-260600-
SOUTH-CENTRAL ILLINOIS

CITY           SKY/WX    TMP DP  RH WIND       PRES   REMARKS
CARBONDALE     CLEAR     23  22  96 CALM      30.19F
CAIRO*         CLEAR     29  26  87 CALM      30.19F
EFFINGHAM*     CLEAR     25  22  90 CALM      30.19F
MARION         CLEAR     28  25  86 CALM      30.19F
MT. VERNON     CLEAR     23  19  86 CALM      30.19F
CENTRALIA*     CLEAR     26  23  87 CALM      30.18F
SALEM*           N/A     29  25  86 CALM      30.18F
METROPOLIS*    CLEAR     28  26  94 CALM        N/A
$$

ILZ067-068-072-073-078-083-087-091-260600-
SOUTHEAST ILLINOIS

CITY           SKY/WX    TMP DP  RH WIND       PRES   REMARKS
LAWRENCEVILLE  CLEAR     28  24  85 NE5       30.20F WCI  23
FLORA*         CLEAR     25  24  99 CALM      30.20F
FAIRFIELD*     CLEAR     27  24  88 CALM      30.19F
HARRISBURG*    CLEAR     25  24  97 CALM      30.21F
ROBINSON*      PTCLDY    27  23  83 NE3       30.22F
CARMI*         CLEAR     26  25  98 N3        30.20S
$$

ABBREVIATIONS USED IN REMARKS
   TC - TEMPERATURE IN CELSIUS
  WCI - WIND CHILL INDEX
   HX - HEAT INDEX
  VSB - VISIBILITY
$$




USA.gov is the U.S. government's official web portal to all federal, state and local government web resources and services.